Regional Weather Roundup
Issued by NWS San Angelo, TX

Home | Current Version | Previous Version | Text Only | Print | Product List | Glossary On
Versions: 1 2 3 4 5 6 7 8 9 10 11 12 13 14 15 16 17 18 19 20 21 22 23 24 25 26 27 28 29 30 31 32 33 34 35 36 37 38 39 40 41 42 43 44 45 46 47 48 49 50
000
ASUS44 KSJT 220810
RWRSJT
WEST CENTRAL TEXAS REGIONAL WEATHER ROUNDUP
NATIONAL WEATHER SERVICE SAN ANGELO TX
300 AM CDT SUN OCT 22 2017

NOTE: "FAIR" INDICATES FEW OR NO CLOUDS BELOW 12,000 FEET WITH NO
SIGNIFICANT WEATHER AND/OR OBSTRUCTIONS TO VISIBILITY.

TXZ049-054-064>066-071>073-076>078-098-099-113-114-127-128-139-140-
154-155-168>170-220900
...LOCATIONS ACROSS WEST CENTRAL TEXAS...

CITY           SKY/WX    TMP DP  RH WIND       PRES   REMARKS
SAN ANGELO     PTCLDY    66  52  60 N18       30.06R
ABILENE        CLEAR     57  55  93 N10       30.08R
DYESS AFB      PTCLDY    58  51  77 NW12      30.08R
JUNCTION       PTCLDY    64  62  93 SW3       30.02R
SWEETWATER     PTCLDY    56  44  64 NW10      30.14R
BROWNWOOD      NOT AVBL
COLEMAN        MOSUNNY   60  54  79 N15       30.04R
SONORA         CLEAR     63  63 100 N6        30.09R
OZONA          FAIR      64  61  88 CALM      30.08S FOG
BRADY          NOT AVBL
$$

TEXAS PANHANDLE/OKLAHOMA PANHANDLE

CITY           SKY/WX    TMP DP  RH WIND       PRES   REMARKS
AMARILLO       CLEAR     43  33  68 NW5       30.20R
BORGER         CLEAR     43  33  68 W7        30.19R WCI  39
CANADIAN       CLEAR     40  34  79 CALM      30.16R
DALHART        CLEAR     38  25  59 NW9       30.23S WCI  31
DUMAS          SUNNY     37  26  65 NW8       30.20S WCI  30
GUYMON         NOT AVBL
HEREFORD       SUNNY     37  32  84 MISG      30.23R
PAMPA          SUNNY     42  33  69 W6        30.19R WCI  39
PERRYTON       CLEAR     40  32  73 NW8       30.15S WCI  35
$$

SOUTHERN PANHANDLE/SOUTH PLAINS/ROLLING PLAINS

CITY           SKY/WX    TMP DP  RH WIND       PRES   REMARKS
LUBBOCK        CLEAR     44  36  73 NW6       30.18R
SNYDER         CLEAR     55  35  45 N13       30.13R
CHILDRESS      CLEAR     47  38  71 NW7       30.14R
SEMINOLE       SUNNY     49  36  61 N7        30.21R
$$

PERMIAN BASIN

CITY           SKY/WX    TMP DP  RH WIND       PRES   REMARKS
MIDLAND        CLEAR     56  38  50 NE12      30.15R
ODESSA         NOT AVBL
WINK           CLEAR     53  39  59 N13       30.14R
$$

FAR WEST/SOUTHWEST MOUNTAINS/TRANS PECOS

CITY           SKY/WX    TMP DP  RH WIND       PRES   REMARKS
ALPINE         SUNNY     57  33  41 E7        30.26R
DRYDEN           N/A     67  64  90 NW7       30.04R
EL PASO        CLEAR     62  31  31 N10       30.19R
FORT STOCKTON  CLEAR     60  41  49 NW8       30.14R
GUADALUPE PASS CLEAR     54  34  46 E22       30.24F
MARFA          CLEAR     50  33  52 N10       30.22S
PECOS          SUNNY     56  42  59 N6        30.15R
$$

DALLAS/FORT WORTH METROPLEX

CITY           SKY/WX    TMP DP  RH WIND       PRES   REMARKS
DFW AIRPORT    TSTM      63  62  97 NE9       29.99R FOG
FTW MEACHAM    LGT RAIN  64  62  93 VRB3      29.98S
DAL-EXECUTIVE  RAIN      62  61  96 NE7       30.00S FOG
GRAND PRAIRIE  CLOUDY    62  62 100 CALM      30.00F
ADDISON        RAIN      62  60  96 CALM      30.03R
MESQUITE       CLOUDY    61  60  97 CALM      30.01S
LANCASTER      TSTM      61  59  94 CALM      30.03R
$$

NORTH CENTRAL TEXAS

CITY           SKY/WX    TMP DP  RH WIND       PRES   REMARKS
SHRMAN/DENISON TSTM      61  60  96 SW3       30.03R
GAINESVILLE    HVY RAIN  61  59  94 E7        30.00R
BRIDGEPORT     TSTM      61  61 100 N10       29.98S
DENTON         LGT RAIN  62  61  96 NE7       29.98S
WAXAHACHIE     HVY RAIN  61  61 100 N6        30.02R
GRANBURY       TSTM      63  60  90 SE7       29.93F
$$

WESTERN NORTH TEXAS

CITY           SKY/WX    TMP DP  RH WIND       PRES   REMARKS
WICHITA FALLS  CLOUDY    58  53  84 N15       30.03R
VERNON         CLOUDY    56  45  64 NW8       30.08R
BRECKENRIDGE   CLOUDY    61  59  92 NW12G18   30.04R
COMANCHE       TSTM      59  59 100 N6        30.00F
$$

CENTRAL AND SOUTH CENTRAL TEXAS

CITY           SKY/WX    TMP DP  RH WIND       PRES   REMARKS
AUSTIN/BERGSTM CLOUDY    74  74 100 S5        29.95S
WACO           MOCLDY    76  72  87 S12       29.94R
HILLSBORO      TSTM      62  60  95 NW13G22   30.02R
TEMPLE         PTCLDY    75  73  93 S9        29.95R
KILLEEN-GRAY   PTCLDY    74  71  89 S10       29.95R
FORT HOOD      MOCLDY    73  70  90 S8        29.92R
GEORGETOWN     CLOUDY    77  73  87 S9        29.97S
LAGO VISTA     CLOUDY    75  72  90 S8        29.99R
SAN MARCOS     MOCLDY    76  73  91 S6        29.97R
NEW BRAUNFELS  CLOUDY    77  73  87 S6        29.95R
RANDOLPH AFB   CLOUDY    76  74  92 SW7       29.97R
SAN ANTONIO    MOCLDY    76  72  87 S8        29.97R
STINSON        CLOUDY    78  75  90 S7        29.94R
PLEASANTON     NOT AVBL
LA GRANGE      CLOUDY    79  77  94 CALM      29.95S
GIDDINGS       PTSUNNY   76  73  90 S6        29.96F
$$

EAST TEXAS

CITY           SKY/WX    TMP DP  RH WIND       PRES   REMARKS
PARIS          TSTM      61  60  97 N8        30.03R
CLARKSVILLE    NOT AVBL
TYLER          CLOUDY    75  72  90 S13       29.97R
LONGVIEW       CLOUDY    76  73  91 W8        29.98R
PALESTINE      RAIN      76  73  92 S7        29.98S
NACOGDOCHES    MOCLDY    73  72  96 SW6       29.98R
$$

TEXAS HILL COUNTRY AND EDWARDS PLATEAU

CITY           SKY/WX    TMP DP  RH WIND       PRES   REMARKS
LLANO          PTSUNNY   70  64  83 CALM      30.00S
HORSESHOE BAY  FAIR      74  70  87 S3        29.98R
KERRVILLE      CLOUDY    72  70  93 S6        30.01R
FREDERICKSBRG  CLOUDY    71  67  87 SW3       30.01R
ROCKSPRINGS    NOT AVBL
HONDO          CLOUDY    76  72  87 S5        29.97S
UVALDE         MOSUNNY   70  68  95 E3        29.98R
DEL RIO        CLEAR     70  66  87 NE6       29.97R
$$

SOUTHEAST TEXAS

CITY           SKY/WX    TMP DP  RH WIND       PRES   REMARKS
COLLEGE STN    CLOUDY    77  75  93 S6        29.97R
CALDWELL       PTSUNNY   75  74  95 S7        29.97S
CROCKETT         N/A     73  72  94 CALM      30.01S
BRENHAM        CLOUDY    76  76  98 CALM      29.97S
HUNTSVILLE     CLOUDY    76  72  87 S6        29.98R
CONROE         CLOUDY    74  74 100 CALM      29.98S FOG
HOUSTON BUSH   PTCLDY    73  73 100 CALM      29.97R
HOUSTON HOBBY  PTCLDY    76  73  91 CALM      29.96R
PERLAND        PTCLDY    76  72  87 CALM      29.98R
WHARTON        MOSUNNY   73  72  96 CALM      29.97S FOG
$$

THE UPPER TEXAS COAST

CITY           SKY/WX    TMP DP  RH WIND       PRES   REMARKS
ORANGE         CLOUDY    77  77  99 SE5       29.99S
PORT ARTHUR    CLEAR     73  73 100 SE5       29.95F FOG
GALVESTON      CLEAR     80  77  90 S8        29.96S
ANGLETON       PTCLDY    77  74  90 CALM      29.96S
BAY CITY       PTSUNNY   76  76  98 CALM      29.95S
$$

TEXAS COASTAL BEND, RIO GRANDE PLAINS DEEP SOUTH TEXAS

CITY           SKY/WX    TMP DP  RH WIND       PRES   REMARKS
VICTORIA       FOG       73  71  93 CALM      29.95R VSB 1/2
BEEVILLE       CLOUDY   N/A N/A N/A CALM      29.95R
ROCKPORT       PTCLDY    80  77  90 S8        29.93R
PORT ARANSAS   NOT AVBL
PORT LAVACA    SUNNY     77  74  92 CALM      29.95R
CORPUS CHRISTI PTCLDY    77  76  96 SE6       29.93R
KINGSVILLE NAS NOT AVBL
COTULLA        CLEAR     75  72  90 SE5       29.94S
LAREDO         CLEAR     75  71  87 E6        29.94R
BROWNSVILLE    CLEAR     78  77  96 SE5       29.92S
PORT ISABEL    CLEAR     78  76  93 S5        29.91S
HEBBRONVILLE   CLOUDY    74  72  92 CALM      29.96R
MCALLEN        CLEAR     78  75  90 SE6       29.91F
WESLACO        CLEAR     75  74  95 S5        29.91S
FALFURRIAS     MOSUNNY   75  73  95 CALM      29.92S
EDINBURG       SUNNY     76  74  91 S3        29.92S
$$




USA.gov is the U.S. government's official web portal to all federal, state and local government web resources and services.